Retour au catalogue

RADIO 2

ActifRadio amateurPO
NORAD 11086·PAYLOAD·🇷🇺 Russia

Lancé Oct 26, 1978 depuis Plesetsk Cosmodrome

Loading…

Prochains Passages (prochaines 24 heures)

TLE

FraisSource: Space-Track

Époque: Sep 14, 2026, 05:09 UTC

1 11086U 78100C   26257.21509091  .00000037  00000-0  36229-3 0  9996
2 11086  82.5561 353.9650 0013247 147.4592 237.3696 11.96754221 91560

Suivez RADIO 2 en temps réel avec AllMySat

Download on the App Store